User: anonymous   Login
Location: Unspecified
(0.0000°N, 0.0000°E)
Time: 06:53:27
(UTC+00:00)
Language:

USA 234 - Orbit

View from above orbital plane
View from above orbital plane
View from above satellite
View from above satellite

Ground track
Ground track

The orbit data is extracted from the following two-line orbital elements,

1 38109U 12014A   17061.20923369 0.00000000  00000-0  00000-0 0    01
2 38109 122.9975  23.3185 0006003 118.7094 241.2905 13.41414578    00
Epoch (UTC): 02 March 2017 05:01:17
Eccentricity: 0.0006003
inclination: 122.9975°
perigee height: 1099 km
apogee height: 1108 km
right ascension of ascending node: 23.3185°
argument of perigee: 118.7094°
revolutions per day: 13.41414578
mean anomaly at epoch: 241.2905°
orbit number at epoch: 0

The dashed part of the orbit path shows where the satellite is in the earth's shadow,  

DLR